TimeCDT,TemperatureF,Dew PointF,Humidity,Sea Level PressureIn,VisibilityMPH,Wind Direction,Wind SpeedMPH,Gust SpeedMPH,PrecipitationIn,Events,Conditions,WindDirDegrees,DateUTC
12:15 AM,57.2,42.8,59,30.18,10.0,South,5.8,-,N/A,,Clear,170,2013-03-28 05:15:00
12:35 AM,57.2,42.8,59,30.18,10.0,South,6.9,-,N/A,,Clear,170,2013-03-28 05:35:00
12:55 AM,57.2,42.8,59,30.18,10.0,South,8.1,-,N/A,,Clear,170,2013-03-28 05:55:00
1:15 AM,55.4,42.8,63,30.19,10.0,South,6.9,-,N/A,,Clear,170,2013-03-28 06:15:00
1:35 AM,55.4,42.8,63,30.18,10.0,South,8.1,-,N/A,,Clear,180,2013-03-28 06:35:00
1:55 AM,55.4,42.8,63,30.18,10.0,South,8.1,-,N/A,,Clear,170,2013-03-28 06:55:00
2:15 AM,55.4,42.8,63,30.18,10.0,South,11.5,-,N/A,,Clear,180,2013-03-28 07:15:00
2:35 AM,55.4,42.8,63,30.18,10.0,South,6.9,-,N/A,,Clear,170,2013-03-28 07:35:00
2:55 AM,55.4,44.6,67,30.18,10.0,South,9.2,16.1,N/A,,Clear,170,2013-03-28 07:55:00
3:15 AM,55.4,44.6,67,30.18,10.0,South,10.4,16.1,N/A,,Clear,170,2013-03-28 08:15:00
3:35 AM,53.6,44.6,72,30.18,10.0,South,10.4,-,N/A,,Clear,180,2013-03-28 08:35:00
3:55 AM,53.6,44.6,72,30.17,10.0,South,9.2,-,N/A,,Clear,170,2013-03-28 08:55:00
4:15 AM,53.6,44.6,72,30.17,10.0,South,8.1,-,N/A,,Clear,170,2013-03-28 09:15:00
4:35 AM,53.6,46.4,77,30.18,10.0,SSE,8.1,-,N/A,,Clear,160,2013-03-28 09:35:00
4:55 AM,51.8,46.4,82,30.18,10.0,SSE,8.1,-,N/A,,Clear,150,2013-03-28 09:55:00
5:15 AM,51.8,44.6,76,30.18,10.0,SSE,8.1,-,N/A,,Clear,160,2013-03-28 10:15:00
5:35 AM,51.8,44.6,76,30.18,10.0,South,8.1,-,N/A,,Clear,170,2013-03-28 10:35:00
5:55 AM,51.8,44.6,76,30.19,10.0,SSE,6.9,-,N/A,,Clear,160,2013-03-28 10:55:00
6:15 AM,51.8,44.6,76,30.19,10.0,South,9.2,-,N/A,,Clear,170,2013-03-28 11:15:00
6:35 AM,51.8,44.6,76,30.19,10.0,South,9.2,-,N/A,,Clear,170,2013-03-28 11:35:00
6:50 AM,51.8,46.4,82,30.19,10.0,SSE,9.2,-,N/A,,Clear,160,2013-03-28 11:50:00
6:55 AM,51.8,44.6,76,30.20,10.0,South,6.9,-,N/A,,Clear,170,2013-03-28 11:55:00
8:50 AM,55.4,48.2,77,30.24,10.0,SSE,11.5,-,N/A,,Clear,160,2013-03-28 13:50:00
9:50 AM,57.2,48.2,72,30.25,10.0,SSE,11.5,-,N/A,,Scattered Clouds,150,2013-03-28 14:50:00
10:50 AM,62.6,51.8,68,30.25,10.0,South,11.5,23.0,N/A,,Mostly Cloudy,180,2013-03-28 15:50:00
11:50 AM,64.4,53.6,68,30.25,10.0,South,13.8,23.0,N/A,,Mostly Cloudy,180,2013-03-28 16:50:00
12:50 PM,64.4,53.6,68,30.25,10.0,South,13.8,23.0,N/A,,Mostly Cloudy,180,2013-03-28 17:50:00
5:50 PM,69.8,55.4,60,30.11,10.0,SE,11.5,16.1,N/A,,Mostly Cloudy,140,2013-03-28 22:50:00
7:50 PM,69.8,55.4,60,30.11,10.0,SE,8.1,-,N/A,,Mostly Cloudy,140,2013-03-29 00:50:00
9:15 PM,66.2,53.6,64,30.12,10.0,SSE,6.9,-,N/A,,Mostly Cloudy,150,2013-03-29 02:15:00
9:35 PM,66.2,53.6,64,30.14,10.0,SSE,6.9,-,N/A,,Mostly Cloudy,150,2013-03-29 02:35:00
9:55 PM,66.2,53.6,64,30.14,10.0,SSE,8.1,-,N/A,,Overcast,150,2013-03-29 02:55:00
10:15 PM,66.2,53.6,64,30.14,10.0,SSE,8.1,-,N/A,,Mostly Cloudy,160,2013-03-29 03:15:00
10:35 PM,64.4,53.6,68,30.15,10.0,SSE,8.1,-,N/A,,Mostly Cloudy,160,2013-03-29 03:35:00
10:55 PM,64.4,55.4,73,30.15,10.0,SSE,9.2,-,N/A,,Mostly Cloudy,160,2013-03-29 03:55:00
11:15 PM,64.4,53.6,68,30.16,10.0,South,9.2,-,N/A,,Mostly Cloudy,170,2013-03-29 04:15:00
11:55 PM,64.4,55.4,73,30.16,10.0,South,8.1,-,N/A,,Mostly Cloudy,170,2013-03-29 04:55:00